Iowa Falls, IA

7:17 AM CST on December 14, 2019 (GMT -0600)
Iowa Falls Municipal

Weather History for KIFA - October, 2019

Change the Weather History Date:

Thursday, October 31, 2019

  Actual Average Record
Temperature  
Mean Temperature 32 °F -  
Max Temperature 39 °F 56 °F 84 °F (1950)
Min Temperature 25 °F 37 °F 16 °F (1949)
Degree Days  
Heating Degree Days 34    
Moisture  
Dew Point 17 °F    
Average Humidity 58    
Maximum Humidity 72    
Minimum Humidity 40    
Precipitation  
Precipitation 0.00 in - - ()
Sea Level Pressure  
Sea Level Pressure 30.11 in    
Wind  
Wind Speed 9 mph ()    
Max Wind Speed 17 mph    
Max Gust Speed 23 mph    
Visibility 9.8 miles    
Events Snow    
Averages and records for this station are not official NWS values.
T = Trace of Precipitation, MM = Missing Value Source: Averaged Metar Reports

Daily Weather History Graph

Daily Weather History Graph

Search for Another Location

Airport or City:

Astronomy

Oct. 31, 2019 Rise Set
Actual Time 7:45 AM CDT 6:07 PM CDT
Civil Twilight 7:15 AM CDT 6:36 PM CDT
Nautical Twilight 6:42 AM CDT 7:09 PM CDT
Astronomical Twilight 6:09 AM CDT 7:42 PM CDT
Moon 11:37 AM CDT (10/31) 9:00 PM CDT (10/31)
Length of Visible Light 11h 20m
Length of Day
10h 22m
Waxing Crescent, 16% of the Moon is Illuminated
Oct 31
Waxing Crescent
Nov 4
First Quarter
Nov 12
Full
Nov 19
Last Quarter
Nov 26
New

Hourly Weather History & Observations

Time (CDT) Temp. Windchill Dew Point Humidity Pressure Visibility Wind Dir Wind Speed Gust Speed Precip Events Conditions
12:15 AM 29.7 °F 22.8 °F 19.0 °F 65% 30.17 in 7.0 mi North 6.9 mph - N/A Snow Light Snow
12:35 AM 29.7 °F 23.7 °F 19.4 °F 66% 30.17 in 10.0 mi NNW 5.8 mph - N/A Snow Light Snow
12:55 AM 29.5 °F 23.4 °F 18.9 °F 65% 30.16 in 5.0 mi North 5.8 mph - N/A Snow Light Snow
1:15 AM 29.7 °F 23.7 °F 18.7 °F 64% 30.16 in 10.0 mi NW 5.8 mph - N/A   Overcast
1:35 AM 30.2 °F 21.3 °F 16.5 °F 57% 30.15 in 10.0 mi NNW 10.4 mph - N/A   Overcast
1:55 AM 30.2 °F 21.3 °F 16.7 °F 57% 30.15 in 10.0 mi NW 10.4 mph - N/A   Overcast
2:15 AM 30.0 °F 22.4 °F 16.7 °F 58% 30.14 in 10.0 mi NW 8.1 mph - N/A   Overcast
3:15 AM 29.1 °F 20.0 °F 17.1 °F 61% 30.12 in 10.0 mi NW 10.4 mph - N/A   Overcast
3:35 AM 28.6 °F 19.3 °F 17.2 °F 63% 30.12 in 10.0 mi NW 10.4 mph - N/A   Overcast
3:55 AM 28.4 °F 17.5 °F 16.7 °F 62% 30.12 in 10.0 mi NW 13.8 mph - N/A   Overcast
4:15 AM 28.0 °F 18.6 °F 16.7 °F 62% 30.11 in 10.0 mi NW 10.4 mph - N/A   Overcast
4:35 AM 27.5 °F 18.6 °F 16.7 °F 64% 30.11 in 10.0 mi NW 9.2 mph - N/A   Overcast
4:55 AM 27.1 °F 18.9 °F 16.5 °F 64% 30.11 in 10.0 mi NW 8.1 mph - N/A   Overcast
5:15 AM 27.0 °F 18.7 °F 16.3 °F 64% 30.11 in 10.0 mi NW 8.1 mph - N/A   Overcast
5:35 AM 26.2 °F 18.6 °F 16.7 °F 67% 30.11 in 10.0 mi NW 6.9 mph - N/A   Mostly Cloudy
5:55 AM 25.7 °F 17.1 °F 17.1 °F 70% 30.11 in 10.0 mi NW 8.1 mph - N/A   Scattered Clouds
6:15 AM 25.3 °F 16.0 °F 17.1 °F 71% 30.11 in 10.0 mi NW 9.2 mph - N/A   Scattered Clouds
6:35 AM 25.3 °F 16.0 °F 16.9 °F 70% 30.11 in 10.0 mi NW 9.2 mph - N/A   Mostly Cloudy
6:55 AM 25.2 °F 15.7 °F 17.2 °F 72% 30.11 in 10.0 mi NW 9.2 mph - N/A   Overcast
7:15 AM 25.5 °F 16.2 °F 17.2 °F 71% 30.11 in 10.0 mi NW 9.2 mph - N/A   Overcast
7:35 AM 25.9 °F 16.0 °F 17.1 °F 69% 30.10 in 10.0 mi NW 10.4 mph - N/A   Overcast
7:55 AM 26.1 °F 16.2 °F 16.7 °F 68% 30.11 in 10.0 mi NW 10.4 mph - N/A   Overcast
8:15 AM 26.2 °F 17.8 °F 16.5 °F 67% 30.11 in 10.0 mi NW 8.1 mph - N/A   Overcast
8:35 AM 26.4 °F 17.3 °F 16.5 °F 66% 30.11 in 10.0 mi NW 9.2 mph - N/A   Overcast
8:55 AM 27.0 °F 18.0 °F 16.7 °F 65% 30.11 in 10.0 mi NW 9.2 mph - N/A   Overcast
9:15 AM 27.5 °F 18.0 °F 16.7 °F 64% 30.11 in 10.0 mi WNW 10.4 mph - N/A   Overcast
9:35 AM 28.2 °F 18.9 °F 16.7 °F 62% 30.11 in 10.0 mi NW 10.4 mph - N/A   Overcast
9:55 AM 28.6 °F 19.3 °F 16.5 °F 61% 30.11 in 10.0 mi NW 10.4 mph - N/A   Mostly Cloudy
10:15 AM 29.8 °F 19.3 °F 15.8 °F 56% 30.11 in 10.0 mi NNW 13.8 mph 20.7 mph N/A   Scattered Clouds
10:35 AM 30.4 °F 19.5 °F 15.8 °F 55% 30.12 in 10.0 mi NW 15.0 mph 20.7 mph N/A   Mostly Cloudy
10:55 AM 30.7 °F 20.4 °F 16.0 °F 54% 30.12 in 10.0 mi NNW 13.8 mph 18.4 mph N/A   Overcast
11:15 AM 31.1 °F 20.5 °F 16.2 °F 54% 30.12 in 10.0 mi NW 15.0 mph 21.9 mph N/A   Overcast
11:35 AM 31.8 °F 22.3 °F 16.3 °F 53% 30.12 in 10.0 mi NW 12.7 mph 18.4 mph N/A   Overcast
11:55 AM 32.0 °F 22.5 °F 16.3 °F 52% 30.12 in 10.0 mi NW 12.7 mph - N/A   Overcast
12:15 PM 32.9 °F 22.4 °F 16.3 °F 51% 30.11 in 10.0 mi WNW 16.1 mph 23.0 mph N/A   Overcast
12:35 PM 32.4 °F 22.1 °F 16.3 °F 52% 30.11 in 10.0 mi NW 15.0 mph 18.4 mph N/A   Overcast
12:55 PM 33.3 °F 22.5 °F 17.2 °F 52% 30.10 in 10.0 mi WNW 17.3 mph - N/A   Mostly Cloudy
1:15 PM 34.9 °F 26.2 °F 16.3 °F 47% 30.09 in 10.0 mi NW 12.7 mph 19.6 mph N/A   Mostly Cloudy
1:35 PM 35.4 °F 27.3 °F 16.9 °F 47% 30.09 in 10.0 mi NW 11.5 mph 19.6 mph N/A   Scattered Clouds
1:55 PM 36.3 °F 27.5 °F 16.9 °F 45% 30.09 in 10.0 mi WNW 13.8 mph 19.6 mph N/A   Scattered Clouds
2:15 PM 36.9 °F 27.5 °F 17.1 °F 45% 30.09 in 10.0 mi WNW 16.1 mph - N/A   Scattered Clouds
2:55 PM 37.8 °F 28.6 °F 16.5 °F 42% 30.08 in 10.0 mi WNW 16.1 mph 20.7 mph N/A   Clear
3:15 PM 38.5 °F 30.3 °F 17.2 °F 42% 30.08 in 7.0 mi WNW 13.8 mph 18.4 mph N/A   Clear
3:35 PM 38.7 °F 30.9 °F 16.7 °F 41% 30.08 in 10.0 mi West 12.7 mph - N/A   Clear
3:55 PM 38.7 °F 30.5 °F 16.3 °F 40% 30.08 in 10.0 mi WNW 13.8 mph 18.4 mph N/A   Clear
4:15 PM 38.8 °F 30.8 °F 16.7 °F 41% 30.08 in 10.0 mi West 13.8 mph - N/A   Clear
4:35 PM 38.7 °F 32.4 °F 16.5 °F 41% 30.09 in 10.0 mi West 9.2 mph 17.3 mph N/A   Clear
4:55 PM 38.5 °F 29.9 °F 16.0 °F 40% 30.09 in 10.0 mi West 15.0 mph 18.4 mph N/A   Clear
5:15 PM 38.3 °F 30.5 °F 16.9 °F 42% 30.09 in 10.0 mi West 12.7 mph - N/A   Clear
5:35 PM 37.8 °F 31.8 °F 16.7 °F 42% 30.09 in 10.0 mi West 8.1 mph - N/A   Clear
5:55 PM 36.5 °F 30.3 °F 17.6 °F 46% 30.09 in 10.0 mi West 8.1 mph - N/A   Clear
6:15 PM 34.0 °F 28.0 °F 18.0 °F 52% 30.09 in 10.0 mi West 6.9 mph - N/A   Clear
6:35 PM 32.0 °F 26.4 °F 17.2 °F 55% 30.09 in 10.0 mi WSW 5.8 mph - N/A   Clear
6:55 PM 30.0 °F 25.2 °F 17.8 °F 60% 30.09 in 10.0 mi WSW 4.6 mph - N/A   Clear
7:15 PM 29.3 °F 22.3 °F 18.5 °F 64% 30.10 in 10.0 mi WSW 6.9 mph - N/A   Clear
7:35 PM 30.2 °F 24.3 °F 18.9 °F 63% 30.10 in 10.0 mi WSW 5.8 mph - N/A   Clear
7:55 PM 30.2 °F 23.4 °F 18.5 °F 62% 30.11 in 10.0 mi SW 6.9 mph - N/A   Clear
8:35 PM 28.6 °F 21.5 °F 19.0 °F 67% 30.11 in 10.0 mi SW 6.9 mph - N/A   Clear
8:55 PM 28.0 °F 21.7 °F 19.0 °F 69% 30.10 in 10.0 mi SW 5.8 mph - N/A   Clear
9:15 PM 28.4 °F 21.2 °F 19.2 °F 69% 30.10 in 10.0 mi SSW 6.9 mph - N/A   Clear
9:35 PM 29.1 °F 22.1 °F 18.9 °F 66% 30.10 in 10.0 mi SSW 6.9 mph - N/A   Clear
10:15 PM 28.0 °F 21.7 °F 17.6 °F 65% 30.11 in 10.0 mi SSW 5.8 mph - N/A   Clear
10:35 PM 27.9 °F 20.6 °F 16.7 °F 63% 30.10 in 10.0 mi South 6.9 mph - N/A   Clear
10:55 PM 27.3 °F 19.9 °F 16.3 °F 63% 30.10 in 10.0 mi South 6.9 mph - N/A   Clear
11:15 PM 28.4 °F 22.2 °F 17.2 °F 63% 30.10 in 10.0 mi SSW 5.8 mph - N/A   Clear
11:35 PM 26.4 °F 18.9 °F 16.5 °F 66% 30.09 in 10.0 mi SSW 6.9 mph - N/A   Clear
11:55 PM 26.6 °F 21.2 °F 17.1 °F 67% 30.09 in 10.0 mi SSW 4.6 mph - N/A   Clear